When you browse on this site, cookies collect data to enhance your experience and personalize the content and advertising you see.
Visit our Privacy Policy to learn more. By continuing to use the site, you agree to this use of cookies and data.
  • In Latvia
  • List of Countries
  • For 7 days
  • Water Temperature
  • Satellite Maps
  • Weather Map
  • Weather Widgets
  • user-avatar
    Login

    Hourly Weather Dinagepoor

    Today, 14 December, Friday

    Time Temperature Precipitation Wind Pressure Humidity
    00:00 +21°C° 0 mm 2 mps 760 mmHg 53%
    01:00 +20°C° 0 mm 2 mps 760 mmHg 54%
    02:00 +20°C° 0 mm 2 mps 760 mmHg 55%
    03:00 +20°C° 0 mm 2 mps 759 mmHg 57%
    04:00 +19°C° 0 mm 2 mps 759 mmHg 57%
    05:00 +19°C° 0 mm 2 mps 759 mmHg 58%
    06:00 +18°C° 0 mm 2 mps 759 mmHg 58%
    07:00 +20°C° 0 mm 2 mps 760 mmHg 54%
    08:00 +21°C° 0 mm 2 mps 760 mmHg 50%
    09:00 +23°C° 0 mm 2 mps 761 mmHg 46%
    10:00 +25°C° 0 mm 2 mps 760 mmHg 41%
    11:00 +27°C° 0 mm 3 mps 760 mmHg 37%
    12:00 +29°C° 0 mm 3 mps 760 mmHg 31%
    13:00 +29°C° 0 mm 3 mps 760 mmHg 30%
    14:00 +29°C° 0 mm 3 mps 759 mmHg 29%
    15:00 +30°C° 0 mm 3 mps 759 mmHg 27%
    16:00 +28°C° 0 mm 3 mps 759 mmHg 30%
    17:00 +27°C° 0 mm 3 mps 759 mmHg 33%
    18:00 +25°C° 0 mm 2 mps 759 mmHg 35%
    19:00 +24°C° 0 mm 2 mps 760 mmHg 36%
    20:00 +23°C° 0 mm 2 mps 760 mmHg 37%
    21:00 +23°C° 0 mm 2 mps 761 mmHg 38%
    22:00 +21°C° 0 mm 2 mps 761 mmHg 38%
    23:00 +21°C° 0 mm 2 mps 761 mmHg 39%

    Tomorrow, 15 December, Saturday

    Time Temperature Precipitation Wind Pressure Humidity
    00:00 +20°C° 0 mm 2 mps 761 mmHg 39%
    01:00 +19°C° 0 mm 2 mps 761 mmHg 40%
    02:00 +19°C° 0 mm 2 mps 761 mmHg 40%
    03:00 +18°C° 0 mm 2 mps 760 mmHg 41%
    04:00 +18°C° 0 mm 2 mps 760 mmHg 41%
    05:00 +17°C° 0 mm 2 mps 760 mmHg 41%
    06:00 +17°C° 0 mm 2 mps 761 mmHg 42%
    07:00 +18°C° 0 mm 2 mps 761 mmHg 40%
    08:00 +19°C° 0 mm 2 mps 762 mmHg 37%
    09:00 +21°C° 0 mm 2 mps 762 mmHg 35%
    10:00 +24°C° 0 mm 2 mps 762 mmHg 31%
    11:00 +25°C° 0 mm 3 mps 762 mmHg 28%
    12:00 +27°C° 0 mm 3 mps 762 mmHg 24%
    13:00 +27°C° 0 mm 2 mps 761 mmHg 23%
    14:00 +28°C° 0 mm 2 mps 760 mmHg 21%
    15:00 +28°C° 0 mm 2 mps 760 mmHg 20%
    16:00 +27°C° 0 mm 2 mps 760 mmHg 22%
    17:00 +25°C° 0 mm 2 mps 760 mmHg 24%
    18:00 +24°C° 0 mm 2 mps 760 mmHg 26%
    19:00 +24°C° 0 mm 2 mps 760 mmHg 27%
    20:00 +23°C° 0 mm 2 mps 761 mmHg 28%
    21:00 +23°C° 0 mm 2 mps 762 mmHg 29%
    22:00 +21°C° 0 mm 2 mps 762 mmHg 30%
    23:00 +21°C° 0 mm 2 mps 762 mmHg 32%

    Day after tomorrow, 16 December, Sunday

    Time Temperature Precipitation Wind Pressure Humidity
    00:00 +21°C° 0 mm 2 mps 762 mmHg 33%
    01:00 +20°C° 0 mm 2 mps 762 mmHg 36%
    02:00 +20°C° 0 mm 2 mps 762 mmHg 39%
    03:00 +20°C° 0 mm 1 mps 761 mmHg 41%
    04:00 +19°C° 0 mm 2 mps 761 mmHg 41%
    05:00 +19°C° 0 mm 2 mps 761 mmHg 42%
    06:00 +19°C° 0 mm 3 mps 761 mmHg 42%
    07:00 +19°C° 0 mm 3 mps 762 mmHg 41%
    08:00 +20°C° 0 mm 3 mps 762 mmHg 40%
    09:00 +20°C° 0 mm 3 mps 763 mmHg 39%
    10:00 +20°C° 0 mm 3 mps 763 mmHg 38%
    11:00 +21°C° 0 mm 3 mps 762 mmHg 36%
    12:00 +21°C° 0 mm 2 mps 762 mmHg 35%
    13:00 +23°C° 0 mm 2 mps 762 mmHg 36%
    14:00 +23°C° 0 mm 1 mps 761 mmHg 36%
    15:00 +23°C° 0 mm 1 mps 761 mmHg 37%
    16:00 +23°C° 0 mm 1 mps 761 mmHg 37%
    17:00 +21°C° 0 mm 2 mps 761 mmHg 38%
    18:00 +21°C° 0 mm 2 mps 761 mmHg 38%
    19:00 +20°C° 0 mm 2 mps 761 mmHg 39%
    20:00 +21°C° 0 mm 1 mps 762 mmHg 39%
    21:00 +21°C° 0 mm 1 mps 762 mmHg 40%
    22:00 +21°C° 0 mm 1 mps 762 mmHg 40%
    23:00 +21°C° 0 mm 1 mps 762 mmHg 39%

    17 December, Monday

    Time Temperature Precipitation Wind Pressure Humidity
    00:00 +20°C° 0 mm 2 mps 761 mmHg 39%
    01:00 +20°C° 0 mm 2 mps 761 mmHg 39%
    02:00 +20°C° 0 mm 2 mps 761 mmHg 39%
    03:00 +20°C° 0 mm 2 mps 760 mmHg 39%
    04:00 +19°C° 0 mm 2 mps 761 mmHg 39%
    05:00 +19°C° 0 mm 2 mps 761 mmHg 40%
    06:00 +20°C° 0 mm 1 mps 761 mmHg 40%
    07:00 +20°C° 0 mm 1 mps 762 mmHg 41%
    08:00 +19°C° 0 mm 2 mps 762 mmHg 42%
    09:00 +20°C° 0 mm 2 mps 763 mmHg 42%
    10:00 +20°C° 0 mm 2 mps 762 mmHg 42%
    11:00 +21°C° 0 mm 2 mps 762 mmHg 42%
    12:00 +21°C° 0 mm 2 mps 762 mmHg 42%
    13:00 +21°C° 0.1 mm 2 mps 761 mmHg 44%
    14:00 +21°C° 0.1 mm 2 mps 761 mmHg 46%
    15:00 +20°C° 0.1 mm 2 mps 760 mmHg 49%
    16:00 +20°C° 0.3 mm 2 mps 760 mmHg 51%
    17:00 +19°C° 0.3 mm 2 mps 760 mmHg 54%
    18:00 +19°C° 0.3 mm 2 mps 760 mmHg 57%
    19:00 +19°C° 0.2 mm 2 mps 761 mmHg 58%
    20:00 +19°C° 0.2 mm 2 mps 761 mmHg 59%
    21:00 +18°C° 0.2 mm 2 mps 762 mmHg 60%
    22:00 +18°C° 0.3 mm 2 mps 762 mmHg 62%
    23:00 +18°C° 0.3 mm 2 mps 761 mmHg 64%

    18 December, Tuesday

    Time Temperature Precipitation Wind Pressure Humidity
    00:00 +17°C° 0.3 mm 2 mps 761 mmHg 66%
    01:00 +17°C° 0.4 mm 3 mps 761 mmHg 67%
    02:00 +17°C° 0.4 mm 3 mps 760 mmHg 69%
    03:00 +17°C° 0.4 mm 4 mps 760 mmHg 70%
    04:00 +17°C° 0.9 mm 3 mps 760 mmHg 72%
    05:00 +17°C° 0.9 mm 3 mps 760 mmHg 73%
    06:00 +17°C° 0.9 mm 3 mps 760 mmHg 75%
    07:00 +17°C° 0.4 mm 3 mps 760 mmHg 75%
    08:00 +17°C° 0.4 mm 3 mps 761 mmHg 75%
    09:00 +17°C° 0.4 mm 3 mps 761 mmHg 74%
    10:00 +18°C° 0 mm 3 mps 761 mmHg 72%
    11:00 +18°C° 0 mm 3 mps 761 mmHg 70%
    12:00 +19°C° 0 mm 3 mps 761 mmHg 68%
    13:00 +19°C° 0 mm 3 mps 760 mmHg 69%
    14:00 +19°C° 0 mm 3 mps 759 mmHg 69%
    15:00 +19°C° 0 mm 3 mps 759 mmHg 70%
    16:00 +18°C° 0 mm 3 mps 759 mmHg 72%
    17:00 +18°C° 0 mm 3 mps 759 mmHg 74%
    18:00 +18°C° 0 mm 2 mps 759 mmHg 76%
    19:00 +18°C° 0 mm 2 mps 759 mmHg 76%
    20:00 +18°C° 0 mm 2 mps 760 mmHg 77%
    21:00 +17°C° 0 mm 2 mps 760 mmHg 77%
    22:00 +17°C° 0 mm 2 mps 760 mmHg 79%
    23:00 +16°C° 0 mm 2 mps 760 mmHg 80%

    19 December, Wednesday

    Time Temperature Precipitation Wind Pressure Humidity
    00:00 +16°C° 0 mm 2 mps 760 mmHg 81%
    01:00 +16°C° 0 mm 2 mps 759 mmHg 81%
    02:00 +15°C° 0 mm 2 mps 759 mmHg 80%
    03:00 +15°C° 0 mm 2 mps 759 mmHg 80%
    04:00 +14°C° 0 mm 2 mps 759 mmHg 79%
    05:00 +14°C° 0 mm 2 mps 759 mmHg 79%
    06:00 +13°C° 0 mm 2 mps 759 mmHg 79%
    07:00 +15°C° 0 mm 2 mps 759 mmHg 74%
    08:00 +16°C° 0 mm 2 mps 760 mmHg 69%
    09:00 +17°C° 0 mm 2 mps 761 mmHg 64%
    10:00 +19°C° 0 mm 2 mps 761 mmHg 58%
    11:00 +20°C° 0 mm 3 mps 760 mmHg 52%
    12:00 +22°C° 0 mm 3 mps 760 mmHg 46%
    13:00 +24°C° 0 mm 3 mps 759 mmHg 42%
    14:00 +25°C° 0 mm 3 mps 759 mmHg 39%
    15:00 +25°C° 0 mm 3 mps 758 mmHg 35%
    16:00 +24°C° 0 mm 3 mps 758 mmHg 38%
    17:00 +23°C° 0 mm 2 mps 758 mmHg 41%
    18:00 +21°C° 0 mm 1 mps 759 mmHg 44%
    19:00 +21°C° 0 mm 1 mps 759 mmHg 45%
    20:00 +20°C° 0 mm 1 mps 760 mmHg 46%
    21:00 +19°C° 0 mm 1 mps 760 mmHg 47%
    22:00 +19°C° 0 mm 1 mps 760 mmHg 48%
    23:00 +18°C° 0 mm 1 mps 760 mmHg 49%
    Show more